Regional Weather Roundup
Issued by NWS

Home | Current Version | Previous Version | Graphics & Text | Print | Product List | Glossary On
Versions: 1 2 3 4 5 6 7 8 9 10 11 12 13 14 15 16 17 18 19 20 21 22 23 24 25 26 27 28 29 30 31 32 33 34 35 36 37 38 39 40 41 42 43 44 45 46 47 48 49 50
000
ASUS44 KMEG 271110
RWRTN
TENNESSEE HOURLY STATE WEATHER ROUNDUP
NATIONAL WEATHER SERVICE MEMPHIS TN
600 AM CDT FRI MAR 27 2015

TNZ002-004-019-021-049-052-054-088>092-271200-
WEST TENNESSEE

CITY           SKY/WX    TMP DP  RH WIND       PRES   REMARKS
MEMPHIS INTL   MOCLDY    38  34  85 CALM      30.04S
NWS MEMPHIS      N/A     34 N/A N/A MISG        N/A
JACKSON        CLEAR     29  28  96 CALM      30.03R
DYERSBURG      PTCLDY    37  25  60 NW5       30.06S WCI  34
UNION CITY     MOCLDY    30  30 100 CALM      30.02R
PARIS          PTCLDY    27  27 100 CALM      30.02R
LEXINGTON      CLEAR     32  30  93 NW5       30.00R WCI  27
SAVANNAH       CLEAR     34  34 100 CALM      30.01R
$$

TNZ008-025-027-028-033-062-065-066-271200-
NORTH MIDDLE TENNESSEE

CITY           SKY/WX    TMP DP  RH WIND       PRES   REMARKS
NASHVILLE      CLEAR     35  33  92 NW7       29.98R WCI  29
CLARKSVILLE    CLEAR     32  31  96 NW5       30.00R WCI  27
SMYRNA         MOCLDY    37  34  89 N9        29.99R WCI  30
COOKEVILLE     MOCLDY    37  36  93 N7        29.90R WCI  32
CROSSVILLE     CLOUDY    38  32  79 N8        29.86S WCI  32
$$

TNZ061-075-076-078-094-096-097-271200-
SOUTH MIDDLE TENNESSEE

CITY           SKY/WX    TMP DP  RH WIND       PRES   REMARKS
FAYETTEVILLE   CLOUDY    37  36  93 N9        29.92R WCI  31
TULLAHOMA      CLOUDY    37  36  93 N9        29.92R WCI  31
WINCHESTER     CLOUDY    39  37  93 N9        29.90R WCI  33
MCMINNVILLE    CLOUDY    39  37  93 N9        29.91R WCI  33
COLUMBIA       CLEAR     34  34 100 CALM      29.96R
SHELBYVILLE    CLOUDY    37  36  93 NW7       29.95R WCI  32
$$

TNZ017-018-042-046-047-271200-
NORTHEAST TENNESSEE

CITY           SKY/WX    TMP DP  RH WIND       PRES   REMARKS
TRI CITIES     CLOUDY    41  37  86 N5        29.81S
ELIZABETHTON   CLOUDY    39  36  87 NW9       29.79S WCI  33
$$

TNZ012-013-036-069-073-074-271200-
CENTRAL EAST TENNESSEE

CITY           SKY/WX    TMP DP  RH WIND       PRES   REMARKS
KNOXVILLE      LGT RAIN  42  38  85 N15       29.84R
OAK RIDGE      CLOUDY    43  39  86 CALM      29.87R
GATLINBURG     CLOUDY    39  37  93 N7        29.84R WCI  34
MORRISTOWN     CLOUDY    39  37  93 N7        29.84R WCI  34
$$

TNZ083-085-099-271200-
SOUTHEAST TENNESSEE

CITY           SKY/WX    TMP DP  RH WIND       PRES   REMARKS
CHATTANOOGA    MOCLDY    45  37  73 N12       29.86R
$$

SKY/WX REPORTED AS FAIR MEANS FEW OR NO CLOUDS BELOW
12 THOUSAND FEET.



USA.gov is the U.S. government's official web portal to all federal, state and local government web resources and services.